[[{"header":{"parameterUnit":"m.s-1","parameterCategory":2,"la1":30.2991,"la2":30.254,"lo1":-89.0895,"lo2":-89.0444,"dy":0.0017,"dx":0.0017,"nx":28,"ny":28,"refTime":"2024-06-11T09:00:00:Z","depth":"0","parameterNumber":2,"parameterNumberName":"U-component_of_CURRENTS"},"data":[0,0,0,0,0,0,0,0,0,0,0,0,0,0,0,0,0,0,0,0,0,0,0,0,0,0,0,0,0,0,0,0,0,0,0,0,0,0,0,0,0,0,0,0,0,0,0,0,0,0,0,0,0,0,0,0,0,0,0.1203,0.1205,0,0.1272,0.1272,0.1272,0.1297,0.1297,0.1298,0.1298,0.1179,0.1176,0.1172,0,0,0,0,0,0,0,0,0,0,0,0,0,0.1037,0.1039,0.1203,0.1205,0.1207,0.1272,0.1272,0.1272,0.1296,0.1297,0.1298,0.1299,0.118,0.1176,0.1172,0,0,0,0,0,0,0,0,0,0,0,0,0,0.1099,0.104,0.1203,0.1233,0.1237,0.1272,0.1272,0.1272,0.1296,0.1297,0.1298,0.1299,0.1182,0.1177,0.1171,0.1119,0,0,0.1154,0.1152,0,0,0,0,0,0,0,0,0.1095,0.1104,0.1227,0.1231,0.1236,0.1285,0.1171,0.1215,0.1296,0.1264,0.1298,0.1299,0.1202,0.1195,0.1196,0.1113,0.1108,0.1154,0.115,0.1148,0.1146,0,0,0,0,0,0,0,0.1091,0.1101,0.1221,0.1229,0.1235,0.1225,0.1234,0.1179,0.1217,0.1267,0.1271,0.1293,0.1202,0.1201,0.1193,0.1107,0.1154,0.1149,0.1145,0.1143,0.1156,0.1159,0,0,0,0,0,0,0.1104,0.1097,0.1219,0.1224,0.1177,0.1228,0.1238,0.1261,0.1222,0.1221,0.1293,0.1294,0.121,0.1199,0.1188,0.1264,0.1148,0.1143,0.1139,0.1152,0.1157,0.1161,0,0,0,0,0,0,0.11,0.1114,0.1216,0.1169,0.1183,0.1232,0.1256,0.1262,0.1267,0.1245,0.1239,0.1294,0.1211,0.1196,0.1169,0.1254,0.114,0.1135,0.1148,0.1153,0.1159,0.1324,0,0,0,0,0,0,0.1094,0.1112,0.1117,0.117,0.1187,0.1238,0.1256,0.1263,0.1284,0.1286,0.1243,0.1234,0.121,0.1178,0.1163,0.1244,0.1131,0.1143,0.115,0.1157,0.1314,0.1335,0.1353,0,0,0,0,0,0.1088,0.1102,0.1117,0.1132,0.1198,0.1239,0.1244,0.1275,0.1283,0.1282,0.1275,0.1235,0.1214,0.1174,0.1157,0.1239,0.114,0.1148,0.1156,0.1306,0.1331,0.1352,0,0,0,0,0,0,0.1037,0.1108,0.1125,0.1161,0.1198,0.1247,0.1255,0.1273,0.1267,0.1269,0.1238,0.1227,0.1255,0.1209,0.1166,0.127,0.1187,0.1192,0.1307,0.133,0.1349,0.1418,0.1126,0,0,0,0,0,0.1029,0.1056,0.1118,0.1145,0.1164,0.1204,0.1221,0.1248,0.1263,0.1263,0.1242,0.1242,0.1275,0.1267,0.1262,0.1271,0.1341,0.1329,0.1348,0.1365,0.1414,0.1643,0.169,0.1188,0.1188,0.1188,0,0,0.1024,0.1062,0.1081,0.1135,0.1164,0.1205,0.1214,0.125,0.1297,0.1244,0.1272,0.1285,0.1291,0.1345,0.1356,0.1313,0.1534,0.1375,0.1389,0.1431,0.1658,0.1707,0.1751,0.1193,0.1192,0.1191,0,0,0.1038,0.1054,0.1089,0.1115,0.117,0.1199,0.121,0.1258,0.1288,0.1303,0.134,0.1421,0.1366,0.1472,0.1501,0.1614,0.1629,0.1594,0.1741,0.1963,0.2008,0.2048,0.2161,0.221,0.1604,0.1604,0.1605,0,0.103,0.109,0.1102,0.1139,0.118,0.1199,0.1254,0.1282,0.1318,0.1389,0.1321,0.1474,0.1461,0.1661,0.1718,0.1667,0.175,0.1648,0.1995,0.2036,0.2075,0.2181,0.2234,0.1613,0.1612,0.1611,0.1611,0,0.1089,0.1122,0.1141,0.1204,0.1231,0.1278,0.1332,0.137,0.1392,0.1463,0.1622,0.1652,0.1771,0.1795,0.1775,0.207,0.2023,0.1995,0.1944,0.2137,0.2233,0.2285,0.1626,0.1623,0.162,0.1618,0,0,0.1144,0.1179,0.1196,0.1226,0.1278,0.1317,0.1395,0.1523,0.1634,0.168,0.186,0.1979,0.2047,0.2093,0.2133,0.2322,0.2639,0.2276,0.2284,0.2401,0.3078,0.2937,0.2977,0.2682,0.2692,0.2701,0.3022,0,0.1207,0.1284,0.1292,0.1367,0.1416,0.1448,0.1531,0.1642,0.1724,0.1878,0.2029,0.2176,0.2145,0.2229,0.2432,0.258,0.279,0.2551,0.2863,0.2871,0.2737,0.304,0.2963,0.3235,0.3072,0.308,0.3087,0,0.1306,0.1338,0.1426,0.1482,0.1511,0.1553,0.1723,0.1798,0.2019,0.2097,0.2307,0.2388,0.2682,0.2603,0.3033,0.2878,0.302,0.3124,0.3139,0.2999,0.2831,0.3025,0.3335,0.3244,0.3166,0.3159,0.3154,0,0.1393,0.1445,0.152,0.1538,0.1603,0.1664,0.1714,0.1897,0.2012,0.2267,0.2385,0.2694,0.2849,0.3115,0.3272,0.3203,0.37,0.3623,0.3646,0.3631,0.3626,0.3592,0.3908,0.4008,0.4007,0.4006,0.4005,0,0.1489,0.1543,0.1557,0.1597,0.1697,0.1724,0.1885,0.1979,0.218,0.2361,0.2517,0.2712,0.3,0.3253,0.3402,0.3668,0.3821,0.3766,0.3768,0.3666,0.3634,0.3592,0.3505,0.4018,0.4015,0.4013,0.4011,0,0.1575,0.1596,0.166,0.1715,0.1737,0.1808,0.1924,0.2055,0.222,0.2457,0.2545,0.2822,0.3121,0.3347,0.3756,0.3819,0.3992,0.413,0.3917,0.389,0.3766,0.3688,0.3851,0.3764,0.4257,0.4256,0.4255,0,0.1618,0.1667,0.1726,0.1757,0.1771,0.1864,0.1949,0.2086,0.2224,0.2513,0.2646,0.2953,0.3157,0.3623,0.384,0.4118,0.4,0.417,0.4053,0.3842,0.3762,0.3549,0.3448,0.4104,0.4102,0.41,0.4099,0,0.1671,0.1701,0.174,0.1817,0.188,0.1965,0.2078,0.2172,0.236,0.2533,0.2766,0.2927,0.3322,0.3571,0.3868,0.4018,0.3959,0.4142,0.408,0.3831,0.3484,0.3367,0.3705,0.4087,0.4088,0.4089,0.409,0.409,0.1693,0.173,0.1791,0.1871,0.1942,0.204,0.2085,0.2206,0.2375,0.2567,0.2759,0.2958,0.334,0.374,0.383,0.3944,0.3882,0.3935,0.3908,0.3746,0.3534,0.3763,0.4018,0.4018,0.4019,0.402,0.402,0,0.1717,0.1772,0.1834,0.1926,0.2005,0.2046,0.2164,0.2187,0.2301,0.2499,0.2657,0.3037,0.3311,0.357,0.386,0.3789,0.3628,0.3693,0.3464,0.3416,0.3825,0.3683,0.3688,0.3688,0.3689,0.3689,0.3689,0.3689,0.1732,0.1809,0.186,0.198,0.2027,0.2079,0.2113,0.2125,0.2224,0.2381,0.2565,0.2764,0.3173,0.3583,0.3675,0.3616,0.339,0.3233,0.3186,0.3534,0.3554,0.3573,0.3426,0.3378,0.3377,0.269,0.2685,0.2681]},{"header":{"parameterUnit":"m.s-1","parameterCategory":2,"la1":30.2991,"la2":30.254,"lo1":-89.0895,"lo2":-89.0444,"dy":0.0017,"dx":0.0017,"nx":28,"ny":28,"refTime":"2024-06-11T09:00:00:Z","depth":"0","parameterNumber":3,"parameterNumberName":"V-component_of_CURRENTS"},"data":[0,0,0,0,0,0,0,0,0,0,0,0,0,0,0,0,0,0,0,0,0,0,0,0,0,0,0,0,0,0,0,0,0,0,0,0,0,0,0,0,0,0,0,0,0,0,0,0,0,0,0,0,0,0,0,0,0,0,-0.0485,-0.0486,0,-0.0498,-0.0497,-0.0497,-0.0441,-0.044,-0.0439,-0.0438,-0.0258,-0.0255,-0.0251,0,0,0,0,0,0,0,0,0,0,0,0,0,-0.0413,-0.0414,-0.0485,-0.0486,-0.0487,-0.0498,-0.0497,-0.0497,-0.0441,-0.044,-0.0438,-0.0437,-0.026,-0.0255,-0.025,0,0,0,0,0,0,0,0,0,0,0,0,0,-0.0431,-0.0415,-0.0485,-0.0465,-0.0464,-0.0498,-0.0497,-0.0496,-0.0441,-0.044,-0.0438,-0.0437,-0.0261,-0.0255,-0.025,-0.0245,0,0,-0.0232,-0.023,0,0,0,0,0,0,0,0,-0.043,-0.0432,-0.0467,-0.0467,-0.0465,-0.0472,-0.0407,-0.0405,-0.0442,-0.0443,-0.0438,-0.0436,-0.0317,-0.0307,-0.0306,-0.0236,-0.0229,-0.0232,-0.0228,-0.0226,-0.0224,0,0,0,0,0,0,0,-0.0429,-0.0432,-0.0483,-0.0468,-0.0467,-0.0456,-0.0456,-0.0406,-0.038,-0.0442,-0.044,-0.0453,-0.0314,-0.0312,-0.0301,-0.0226,-0.0232,-0.0227,-0.0223,-0.0221,-0.0068,-0.0067,0,0,0,0,0,0,-0.0443,-0.0431,-0.0483,-0.0484,-0.0451,-0.0459,-0.0459,-0.0466,-0.0384,-0.0374,-0.0454,-0.045,-0.0322,-0.0308,-0.0294,-0.0183,-0.0226,-0.022,-0.0217,-0.0068,-0.0068,-0.0067,0,0,0,0,0,0,-0.0441,-0.0447,-0.0483,-0.0463,-0.0468,-0.0463,-0.0471,-0.0467,-0.0463,-0.0397,-0.0381,-0.0454,-0.0321,-0.0302,-0.0248,-0.0179,-0.0218,-0.0213,-0.0069,-0.0068,-0.0067,-0.0025,0,0,0,0,0,0,-0.0439,-0.0446,-0.0453,-0.0464,-0.047,-0.0511,-0.0473,-0.0469,-0.0476,-0.0471,-0.0391,-0.0373,-0.0318,-0.0257,-0.0242,-0.0172,-0.0208,-0.007,-0.0069,-0.0068,-0.0027,-0.0023,-0.0019,0,0,0,0,0,-0.0436,-0.0461,-0.0453,-0.0459,-0.048,-0.0513,-0.0514,-0.05,-0.0478,-0.0487,-0.0425,-0.0376,-0.0238,-0.0253,-0.0235,-0.0161,-0.0071,-0.0069,-0.0068,-0.0029,-0.0023,-0.0019,0,0,0,0,0,0,-0.0433,-0.0458,-0.0449,-0.0479,-0.0497,-0.0506,-0.0523,-0.0509,-0.0473,-0.046,-0.038,-0.0359,-0.0285,-0.025,-0.0268,-0.012,-0.0141,-0.0136,-0.0117,-0.0111,-0.0107,-0.0005,-0.0203,0,0,0,0,0,-0.0438,-0.0461,-0.0481,-0.0505,-0.052,-0.052,-0.053,-0.0524,-0.0502,-0.0486,-0.043,-0.0356,-0.0269,-0.0215,-0.0165,-0.0088,-0.0019,-0.003,-0.0025,-0.0022,0.007,0.0211,0.0239,-0.0062,-0.0062,-0.0062,0,0,-0.0447,-0.0464,-0.0477,-0.0506,-0.0519,-0.0526,-0.0521,-0.055,-0.0513,-0.0469,-0.0405,-0.0357,-0.0256,-0.0166,-0.0126,-0.0119,0.0077,-0.002,-0.0017,0.0075,0.0216,0.0247,0.0274,-0.0061,-0.0062,-0.0062,0,0,-0.0475,-0.0492,-0.0514,-0.0532,-0.0562,-0.0553,-0.0563,-0.0574,-0.0533,-0.0493,-0.0422,-0.0315,-0.0251,-0.0111,-0.0037,0.0021,0.0075,0.0001,0.0143,0.0276,0.0304,0.033,0.0368,0.0398,0.0028,0.0028,0.0028,0,-0.0475,-0.0497,-0.0527,-0.0549,-0.0543,-0.0561,-0.0556,-0.053,-0.051,-0.0402,-0.0472,-0.0228,-0.0186,0.0067,0.0078,0.0049,0.0084,0.0117,0.0289,0.0317,0.0343,0.0377,0.0409,0.003,0.003,0.003,0.003,0,-0.0508,-0.0524,-0.0547,-0.0554,-0.0553,-0.0572,-0.0539,-0.0492,-0.0453,-0.0368,-0.0171,-0.0111,0.0085,0.0079,0.0099,0.0335,0.0277,0.0256,0.0288,0.0377,0.0403,0.0436,0.0034,0.0033,0.0032,0.0032,0,0,-0.0491,-0.055,-0.0552,-0.0532,-0.0549,-0.0537,-0.0455,-0.0317,-0.0142,-0.0129,0.0123,0.0233,0.0317,0.0407,0.0451,0.056,0.0705,0.0488,0.0494,0.0549,0.0933,0.0797,0.0818,0.07,0.0708,0.0715,0.0845,0,-0.0487,-0.0515,-0.0528,-0.05,-0.0498,-0.0446,-0.0325,-0.019,-0.0054,0.0171,0.0317,0.0524,0.0428,0.0546,0.0644,0.0721,0.0808,0.0669,0.0825,0.083,0.072,0.0861,0.078,0.0885,0.0877,0.0883,0.0887,0,-0.0487,-0.0498,-0.0491,-0.0397,-0.0376,-0.0338,-0.0067,0.0042,0.0362,0.0494,0.0733,0.0834,0.1067,0.0921,0.1131,0.1035,0.101,0.1012,0.1016,0.0933,0.0762,0.0812,0.0945,0.0713,0.0938,0.0934,0.093,0,-0.0435,-0.044,-0.0415,-0.0413,-0.0327,-0.023,-0.0124,0.0167,0.0396,0.0733,0.0952,0.1181,0.1356,0.1377,0.1339,0.1266,0.1501,0.1402,0.1256,0.124,0.1239,0.1211,0.1213,0.1559,0.1559,0.1559,0.1558,0,-0.0411,-0.0385,-0.0391,-0.0383,-0.0229,-0.017,0.0119,0.0286,0.0651,0.1012,0.1136,0.1444,0.1483,0.1599,0.1484,0.1476,0.1618,0.1356,0.1319,0.123,0.1202,0.1051,0.0915,0.1563,0.1562,0.1561,0.1561,0,-0.0377,-0.0399,-0.0361,-0.028,-0.0226,-0.0109,0.0213,0.0499,0.0781,0.125,0.1376,0.1716,0.1863,0.1809,0.1876,0.1705,0.1529,0.16,0.1435,0.1376,0.0994,0.0863,0.0969,0.0832,0.1516,0.1514,0.1513,0,-0.0367,-0.0363,-0.0302,-0.0218,-0.019,0.0011,0.0242,0.0538,0.0877,0.1434,0.1703,0.1968,0.2209,0.2188,0.1926,0.1723,0.1518,0.1485,0.1356,0.1035,0.0865,0.0818,0.0691,0.1331,0.1328,0.1325,0.1323,0,-0.0329,-0.0324,-0.0281,-0.011,0.0063,0.0322,0.0644,0.0908,0.1361,0.1712,0.2201,0.2403,0.2399,0.2224,0.1891,0.1706,0.1285,0.1427,0.1212,0.0851,0.0705,0.0529,0.1094,0.1303,0.1305,0.1306,0.1307,0.1308,-0.027,-0.0215,-0.0118,0.0076,0.0298,0.0678,0.0939,0.1306,0.178,0.2335,0.2472,0.2758,0.2461,0.203,0.1703,0.1066,0.1146,0.0881,0.0785,0.0796,0.0581,0.104,0.1116,0.1117,0.1118,0.1119,0.112,0,-0.0126,-0.0032,0.0118,0.0396,0.0725,0.0808,0.1296,0.1587,0.2086,0.2445,0.2771,0.2771,0.2273,0.1765,0.0939,0.0499,0.0362,0.0286,0.022,0.0144,0.0671,0.0568,0.0388,0.0389,0.0389,0.0389,0.0389,0.039,-0.0024,0.0163,0.0266,0.0787,0.1011,0.1471,0.175,0.2079,0.2363,0.2751,0.29,0.3001,0.2676,0.1252,0.0225,-0.0045,-0.0342,-0.0362,-0.0492,-0.0174,-0.0126,-0.008,-0.0207,-0.0546,-0.0547,-0.0988,-0.0993,-0.0996]}],[{"header":{"parameterUnit":"m.s-1","parameterCategory":2,"la1":30.2991,"la2":30.254,"lo1":-89.0895,"lo2":-89.0444,"dy":0.0017,"dx":0.0017,"nx":28,"ny":28,"refTime":"2024-06-11T09:00:00:Z","depth":"2","parameterNumber":2,"parameterNumberName":"U-component_of_CURRENTS"},"data":[0,0,0,0,0,0,0,0,0,0,0,0,0,0,0,0,0,0,0,0,0,0,0,0,0,0,0,0,0,0,0,0,0,0,0,0,0,0,0,0,0,0,0,0,0,0,0,0,0,0,0,0,0,0,0,0,0,0,0.1083,0.1083,0,0.1107,0.1107,0.1108,0.1116,0.1116,0.1116,0.1116,0.1206,0.1208,0.1211,0,0,0,0,0,0,0,0,0,0,0,0,0,0.101,0.1011,0.1083,0.1083,0.1084,0.1107,0.1107,0.1108,0.1116,0.1116,0.1116,0.1116,0.1205,0.1208,0.1211,0,0,0,0,0,0,0,0,0,0,0,0,0,0.1037,0.1012,0.1083,0.1092,0.1093,0.1107,0.1107,0.1108,0.1116,0.1116,0.1116,0.1116,0.1204,0.1208,0.1211,0.1232,0,0,0.1222,0.1224,0,0,0,0,0,0,0,0,0.1036,0.104,0.109,0.1091,0.1092,0.111,0.1115,0.1153,0.1116,0.1105,0.1116,0.1116,0.1181,0.1186,0.1188,0.1237,0.1241,0.1222,0.1225,0.1226,0.1227,0,0,0,0,0,0,0,0.1034,0.1039,0.1091,0.1091,0.1092,0.1083,0.1087,0.1122,0.1143,0.1106,0.1107,0.1112,0.1182,0.1184,0.119,0.1242,0.1222,0.1225,0.1228,0.1229,0.1384,0.1386,0,0,0,0,0,0,0.1036,0.1037,0.109,0.1092,0.1065,0.1085,0.1089,0.1103,0.1141,0.1147,0.1112,0.1113,0.1178,0.1186,0.1194,0.1277,0.1226,0.1229,0.1231,0.1382,0.1385,0.1387,0,0,0,0,0,0,0.1034,0.1041,0.109,0.1066,0.1071,0.1086,0.1101,0.1103,0.1111,0.1145,0.1152,0.1118,0.1178,0.1189,0.1245,0.1279,0.1231,0.1234,0.138,0.1383,0.1386,0.141,0,0,0,0,0,0,0.1032,0.104,0.1051,0.1066,0.1073,0.1106,0.1102,0.1104,0.1114,0.1115,0.1153,0.1161,0.1179,0.1239,0.1248,0.1283,0.1237,0.1377,0.1381,0.1385,0.1406,0.1413,0.1419,0,0,0,0,0,0.103,0.1048,0.1051,0.1058,0.1087,0.1106,0.1109,0.1118,0.1115,0.1123,0.1158,0.116,0.1269,0.1244,0.1254,0.129,0.1376,0.138,0.1385,0.1403,0.1412,0.1419,0,0,0,0,0,0,0.1018,0.1051,0.1055,0.1081,0.1095,0.1108,0.112,0.112,0.115,0.1157,0.1182,0.1193,0.1254,0.1272,0.1243,0.1348,0.1324,0.1331,0.1335,0.1343,0.1349,0.137,0.124,0,0,0,0,0,0.1021,0.1044,0.1067,0.1084,0.1097,0.1106,0.1115,0.1121,0.1148,0.1159,0.1189,0.1231,0.128,0.131,0.1348,0.1405,0.1435,0.1438,0.1444,0.1449,0.1475,0.1556,0.1572,0.1401,0.1401,0.1401,0,0,0.102,0.104,0.1052,0.1083,0.1096,0.1123,0.1112,0.113,0.1158,0.1168,0.1221,0.125,0.1298,0.1363,0.1393,0.1384,0.1509,0.1454,0.1458,0.1482,0.1563,0.1579,0.1594,0.1404,0.1404,0.1403,0,0,0.1033,0.105,0.1078,0.1095,0.112,0.1132,0.1139,0.1163,0.1182,0.1231,0.1253,0.1308,0.1368,0.1419,0.1451,0.1518,0.1534,0.1526,0.1582,0.166,0.1674,0.1688,0.1723,0.1739,0.1535,0.1535,0.1535,0,0.1032,0.1075,0.1085,0.1116,0.1145,0.1139,0.1181,0.1194,0.1232,0.1272,0.1255,0.1386,0.1403,0.1517,0.153,0.1534,0.1567,0.1543,0.1667,0.1682,0.1695,0.1728,0.1746,0.1537,0.1536,0.1536,0.1536,0,0.1076,0.1105,0.1123,0.1169,0.1194,0.1225,0.1253,0.1275,0.1295,0.1326,0.143,0.1471,0.1566,0.1564,0.1562,0.1677,0.1664,0.1657,0.1644,0.1713,0.1743,0.1761,0.1539,0.1538,0.1538,0.1537,0,0,0.1117,0.1148,0.1163,0.119,0.1233,0.1262,0.1307,0.1371,0.142,0.1466,0.1571,0.1632,0.1672,0.1713,0.1734,0.178,0.1867,0.1757,0.176,0.1784,0.202,0.1959,0.1972,0.1884,0.1888,0.1891,0.1993,0,0.1162,0.1217,0.1237,0.1302,0.1339,0.1357,0.1404,0.1454,0.1499,0.1588,0.1662,0.176,0.1729,0.1786,0.1839,0.1863,0.1921,0.1839,0.1958,0.1961,0.1893,0.1995,0.1839,0.1915,0.2011,0.2014,0.2016,0,0.1233,0.1258,0.1324,0.1378,0.1402,0.1445,0.1538,0.1577,0.1677,0.1716,0.1834,0.1896,0.2011,0.1962,0.208,0.2031,0.2044,0.2042,0.2046,0.2002,0.1936,0.1868,0.1944,0.2046,0.2044,0.2041,0.2039,0,0.1281,0.1338,0.1393,0.1413,0.1463,0.1517,0.1558,0.1636,0.1692,0.1826,0.19,0.2038,0.2129,0.2184,0.2191,0.2154,0.2289,0.2244,0.221,0.2203,0.2104,0.2082,0.2351,0.2351,0.2351,0.235,0.235,0,0.1341,0.1392,0.1421,0.1452,0.1532,0.1567,0.1667,0.1705,0.1814,0.1912,0.1998,0.2114,0.2189,0.2275,0.2263,0.2297,0.2368,0.2253,0.2249,0.2103,0.2082,0.2221,0.2205,0.2354,0.2353,0.2352,0.2352,0,0.1389,0.1404,0.1461,0.1522,0.1552,0.1614,0.1714,0.1787,0.1864,0.2007,0.2069,0.2205,0.2312,0.2361,0.2436,0.2388,0.2414,0.2407,0.2206,0.2177,0.2254,0.2238,0.24,0.2399,0.2398,0.2398,0.2397,0,0.1415,0.1445,0.1503,0.1548,0.1587,0.1672,0.1739,0.1811,0.1893,0.2057,0.2149,0.23,0.2397,0.2475,0.2432,0.2435,0.2457,0.2266,0.2175,0.2292,0.2271,0.2256,0.2241,0.204,0.2037,0.2034,0.2032,0,0.1459,0.1476,0.1511,0.1593,0.1674,0.174,0.1847,0.1901,0.2006,0.2121,0.2278,0.2364,0.2439,0.2381,0.2353,0.2311,0.2249,0.221,0.2438,0.2042,0.1959,0.1936,0.1933,0.2008,0.201,0.2012,0.2013,0.2014,0.149,0.1518,0.1566,0.1651,0.1727,0.181,0.1844,0.1951,0.2058,0.213,0.2253,0.2275,0.2277,0.2165,0.21,0.203,0.2166,0.2047,0.2053,0.2063,0.1994,0.1914,0.1939,0.1941,0.1942,0.1944,0.1945,0,0.1539,0.1577,0.1635,0.1709,0.177,0.1828,0.1917,0.1906,0.1997,0.2038,0.2092,0.1914,0.1885,0.1892,0.1771,0.1742,0.1684,0.1657,0.1593,0.1621,0.1645,0.155,0.138,0.1378,0.1375,0.1374,0,0,0.1569,0.1626,0.1646,0.1733,0.1792,0.1831,0.1861,0.1846,0.1844,0.1752,0.1713,0.1741,0.186,0.16,0.1567,0.1479,0.1521,0.1402,0.1867,0.1824,0.1845,0.1893,0.1783,0,0,0,0,0]},{"header":{"parameterUnit":"m.s-1","parameterCategory":2,"la1":30.2991,"la2":30.254,"lo1":-89.0895,"lo2":-89.0444,"dy":0.0017,"dx":0.0017,"nx":28,"ny":28,"refTime":"2024-06-11T09:00:00:Z","depth":"2","parameterNumber":3,"parameterNumberName":"V-component_of_CURRENTS"},"data":[0,0,0,0,0,0,0,0,0,0,0,0,0,0,0,0,0,0,0,0,0,0,0,0,0,0,0,0,0,0,0,0,0,0,0,0,0,0,0,0,0,0,0,0,0,0,0,0,0,0,0,0,0,0,0,0,0,0,-0.0686,-0.0687,0,-0.0766,-0.0767,-0.0768,-0.0811,-0.0811,-0.0811,-0.0811,-0.0763,-0.0762,-0.0761,0,0,0,0,0,0,0,0,0,0,0,0,0,-0.0547,-0.055,-0.0686,-0.0687,-0.0688,-0.0766,-0.0767,-0.0768,-0.0811,-0.0811,-0.0811,-0.0811,-0.0764,-0.0762,-0.076,0,0,0,0,0,0,0,0,0,0,0,0,0,-0.0616,-0.0551,-0.0686,-0.0718,-0.0722,-0.0765,-0.0767,-0.0768,-0.0811,-0.0811,-0.0811,-0.0811,-0.0764,-0.0762,-0.076,-0.0746,0,0,-0.0754,-0.0753,0,0,0,0,0,0,0,0,-0.0612,-0.0621,-0.0712,-0.0716,-0.072,-0.0778,-0.07,-0.0754,-0.0811,-0.0778,-0.0811,-0.0811,-0.0756,-0.0755,-0.0772,-0.0744,-0.0742,-0.0754,-0.0753,-0.0752,-0.0751,0,0,0,0,0,0,0,-0.0607,-0.0618,-0.0718,-0.0713,-0.0718,-0.0721,-0.0731,-0.0711,-0.0763,-0.0781,-0.0784,-0.0792,-0.0757,-0.0774,-0.0771,-0.0741,-0.0754,-0.0752,-0.0751,-0.075,-0.0664,-0.0663,0,0,0,0,0,0,-0.0598,-0.0614,-0.0715,-0.072,-0.0665,-0.0723,-0.0735,-0.076,-0.0766,-0.0768,-0.0792,-0.0794,-0.0777,-0.0773,-0.0769,-0.0733,-0.0752,-0.075,-0.0749,-0.0665,-0.0664,-0.0663,0,0,0,0,0,0,-0.0595,-0.0607,-0.0712,-0.0667,-0.068,-0.0726,-0.0753,-0.0761,-0.0787,-0.0776,-0.0776,-0.0811,-0.0777,-0.0772,-0.0756,-0.0732,-0.0749,-0.0747,-0.0666,-0.0665,-0.0663,-0.0672,0,0,0,0,0,0,-0.0591,-0.0606,-0.0614,-0.0667,-0.0683,-0.0736,-0.0754,-0.0763,-0.0791,-0.0795,-0.0792,-0.0787,-0.0777,-0.076,-0.0755,-0.0729,-0.0746,-0.0668,-0.0666,-0.0664,-0.0673,-0.0671,-0.0669,0,0,0,0,0,-0.0586,-0.0602,-0.0615,-0.0626,-0.0696,-0.0736,-0.0745,-0.0777,-0.0792,-0.0801,-0.0801,-0.0788,-0.0742,-0.0758,-0.0752,-0.0725,-0.0669,-0.0666,-0.0664,-0.0674,-0.0671,-0.0669,0,0,0,0,0,0,-0.0551,-0.061,-0.0624,-0.0659,-0.0692,-0.0744,-0.0756,-0.0781,-0.0793,-0.0794,-0.0787,-0.0782,-0.0755,-0.0739,-0.0757,-0.0692,-0.0697,-0.0694,-0.0707,-0.0704,-0.0702,-0.0691,-0.0744,0,0,0,0,0,-0.0545,-0.0571,-0.0623,-0.0648,-0.0666,-0.0712,-0.0732,-0.0757,-0.0778,-0.0787,-0.0783,-0.0765,-0.0739,-0.0724,-0.0703,-0.0675,-0.068,-0.0648,-0.0646,-0.0644,-0.063,-0.0645,-0.0644,-0.0655,-0.0655,-0.0655,0,0,-0.054,-0.0572,-0.0589,-0.064,-0.0671,-0.0685,-0.0725,-0.076,-0.0761,-0.0773,-0.0768,-0.0763,-0.0732,-0.0701,-0.0685,-0.0686,-0.0643,-0.0641,-0.064,-0.0626,-0.0643,-0.0642,-0.0641,-0.0653,-0.0653,-0.0653,0,0,-0.0533,-0.0572,-0.0585,-0.0612,-0.0654,-0.0674,-0.0684,-0.0735,-0.0749,-0.0747,-0.0749,-0.0737,-0.0702,-0.0682,-0.0662,-0.0633,-0.0637,-0.0617,-0.0594,-0.061,-0.061,-0.061,-0.0619,-0.062,-0.0611,-0.0611,-0.0611,0,-0.052,-0.0549,-0.0593,-0.0608,-0.0618,-0.0665,-0.067,-0.0689,-0.0724,-0.0721,-0.0736,-0.0692,-0.0687,-0.0634,-0.0632,-0.0628,-0.064,-0.0612,-0.061,-0.061,-0.061,-0.062,-0.062,-0.0611,-0.0611,-0.0611,-0.0611,0,-0.0521,-0.0541,-0.0553,-0.0577,-0.0588,-0.0609,-0.0633,-0.0644,-0.0659,-0.0671,-0.0643,-0.0643,-0.0603,-0.0608,-0.0615,-0.0592,-0.0603,-0.0615,-0.0624,-0.061,-0.062,-0.0621,-0.0612,-0.0612,-0.0612,-0.0611,0,0,-0.0507,-0.0545,-0.0549,-0.0545,-0.0577,-0.0584,-0.0578,-0.0581,-0.0569,-0.0587,-0.0545,-0.0543,-0.0543,-0.0521,-0.0524,-0.0555,-0.0585,-0.0588,-0.0589,-0.061,-0.0621,-0.0591,-0.059,-0.0609,-0.0609,-0.0609,-0.0632,0,-0.0493,-0.0502,-0.052,-0.0508,-0.0512,-0.0535,-0.0516,-0.052,-0.0525,-0.0494,-0.0492,-0.0446,-0.0503,-0.0471,-0.0512,-0.0564,-0.0585,-0.0577,-0.0618,-0.0619,-0.0606,-0.0589,-0.057,-0.0585,-0.0632,-0.0633,-0.0633,0,-0.0485,-0.0489,-0.0483,-0.0468,-0.047,-0.0459,-0.0433,-0.042,-0.0397,-0.0401,-0.0369,-0.0345,-0.0344,-0.0393,-0.0481,-0.0477,-0.0537,-0.0597,-0.0599,-0.0565,-0.059,-0.0603,-0.0584,-0.0634,-0.0634,-0.0634,-0.0634,0,-0.0445,-0.0454,-0.044,-0.0445,-0.0441,-0.0427,-0.0405,-0.0394,-0.036,-0.0314,-0.0278,-0.0275,-0.0252,-0.0334,-0.0428,-0.0458,-0.0535,-0.0583,-0.0606,-0.0605,-0.0589,-0.0586,-0.0628,-0.0628,-0.0628,-0.0628,-0.0628,0,-0.042,-0.041,-0.0426,-0.0422,-0.0385,-0.0384,-0.0327,-0.0329,-0.0271,-0.0201,-0.0207,-0.0147,-0.0246,-0.0274,-0.0384,-0.0486,-0.0491,-0.0589,-0.0604,-0.059,-0.0586,-0.0626,-0.0626,-0.0629,-0.0629,-0.0629,-0.0629,0,-0.0381,-0.0401,-0.0384,-0.0379,-0.0372,-0.0338,-0.0269,-0.0216,-0.0202,-0.01,-0.0057,-0.0056,-0.0102,-0.0188,-0.0315,-0.0423,-0.0519,-0.0544,-0.0511,-0.0521,-0.0596,-0.0595,-0.059,-0.0589,-0.0588,-0.0587,-0.0587,0,-0.0364,-0.0356,-0.035,-0.0321,-0.0319,-0.0266,-0.0217,-0.0186,-0.0116,-0.0038,0.0031,0.0043,0.0092,-0.008,-0.0257,-0.0398,-0.0448,-0.0496,-0.0547,-0.0574,-0.059,-0.0591,-0.0591,-0.0538,-0.0537,-0.0537,-0.0536,0,-0.0318,-0.0324,-0.0305,-0.0254,-0.0211,-0.0138,-0.0063,-0.0008,0.006,0.0147,0.0259,0.0321,0.018,0.0057,-0.0151,-0.0274,-0.0475,-0.0485,-0.0516,-0.0541,-0.0525,-0.0541,-0.0543,-0.0529,-0.053,-0.0531,-0.0531,-0.0531,-0.0282,-0.0252,-0.0223,-0.0171,-0.0106,-0.0006,0.0065,0.0179,0.031,0.047,0.046,0.0551,0.0332,0.0114,-0.0105,-0.0367,-0.0389,-0.05,-0.0503,-0.0507,-0.0487,-0.0469,-0.0459,-0.0459,-0.046,-0.046,-0.046,0,-0.0222,-0.0181,-0.0126,-0.0063,0.0025,0.0049,0.0181,0.0299,0.0476,0.0624,0.0758,0.0626,0.0467,0.0219,-0.0153,-0.0382,-0.0431,-0.0458,-0.0477,-0.0482,-0.0487,-0.0467,-0.0435,-0.0435,-0.0435,-0.0435,0,0,-0.0181,-0.0119,-0.0095,0.0036,0.0098,0.0235,0.0315,0.0519,0.0666,0.086,0.0923,0.0935,0.0591,0.0337,0.0007,-0.0202,-0.0287,-0.0249,-0.025,-0.024,-0.0241,-0.0498,-0.047,0,0,0,0,0]}],[{"header":{"parameterUnit":"m.s-1","parameterCategory":2,"la1":30.2991,"la2":30.254,"lo1":-89.0895,"lo2":-89.0444,"dy":0.0017,"dx":0.0017,"nx":28,"ny":28,"refTime":"2024-06-11T09:00:00:Z","depth":"4","parameterNumber":2,"parameterNumberName":"U-component_of_CURRENTS"},"data":[0,0,0,0,0,0,0,0,0,0,0,0,0,0,0,0,0,0,0,0,0,0,0,0,0,0,0,0,0,0,0,0,0,0,0,0,0,0,0,0,0,0,0,0,0,0,0,0,0,0,0,0,0,0,0,0,0,0,0.0379,0.0378,0,0.0329,0.0328,0.0328,0.0367,0.0368,0.037,0.0372,0.0525,0.0527,0.0529,0,0,0,0,0,0,0,0,0,0,0,0,0,0.045,0.0449,0.0379,0.0378,0.0378,0.0329,0.0328,0.0327,0.0366,0.0368,0.0371,0.0373,0.0524,0.0527,0.053,0,0,0,0,0,0,0,0,0,0,0,0,0,0.0411,0.0449,0.0379,0.0392,0.0393,0.0329,0.0328,0.0327,0.0366,0.0369,0.0371,0.0374,0.0523,0.0526,0.053,0.0499,0,0,0.0541,0.0543,0,0,0,0,0,0,0,0,0.0413,0.0408,0.0391,0.0391,0.0392,0.0358,0.0409,0.0395,0.0365,0.0375,0.0372,0.0375,0.0486,0.0493,0.0473,0.0506,0.0513,0.0541,0.0544,0.0545,0.0546,0,0,0,0,0,0,0,0.0416,0.041,0.0358,0.039,0.0391,0.0381,0.0379,0.0406,0.0419,0.0374,0.0377,0.0373,0.0488,0.0469,0.0478,0.0515,0.0541,0.0544,0.0547,0.0548,0.0664,0.0664,0,0,0,0,0,0,0.0424,0.0412,0.0359,0.0356,0.0411,0.0378,0.0375,0.0365,0.0415,0.0423,0.037,0.0375,0.0462,0.0473,0.0484,0.0604,0.0545,0.0548,0.0551,0.0663,0.0664,0.0665,0,0,0,0,0,0,0.0425,0.0419,0.0361,0.0385,0.0377,0.0374,0.0362,0.0363,0.0404,0.041,0.0423,0.0419,0.0464,0.0479,0.0565,0.0605,0.055,0.0553,0.0662,0.0663,0.0664,0.0747,0,0,0,0,0,0,0.0427,0.042,0.0417,0.0385,0.0376,0.035,0.036,0.036,0.0394,0.0401,0.0454,0.0467,0.0468,0.0559,0.0568,0.0609,0.0556,0.066,0.0662,0.0664,0.0743,0.0751,0.0758,0,0,0,0,0,0.043,0.042,0.0417,0.0411,0.0372,0.035,0.0345,0.0351,0.0394,0.0402,0.0462,0.0469,0.0575,0.0564,0.0574,0.0617,0.066,0.0662,0.0664,0.074,0.075,0.0758,0,0,0,0,0,0,0.0451,0.0422,0.0419,0.0401,0.0388,0.0358,0.0361,0.0383,0.0429,0.0467,0.0493,0.0508,0.0585,0.0589,0.0576,0.0649,0.0613,0.0617,0.0667,0.0677,0.0684,0.0701,0.0559,0,0,0,0,0,0.0451,0.0437,0.0412,0.0399,0.0399,0.0395,0.0394,0.0409,0.0438,0.0462,0.0515,0.0561,0.0585,0.0629,0.0643,0.0705,0.0688,0.0732,0.0739,0.0746,0.0764,0.077,0.078,0.0671,0.0671,0.0671,0,0,0.0452,0.0436,0.0427,0.0403,0.0395,0.0397,0.0402,0.0421,0.045,0.0474,0.0566,0.0594,0.0603,0.0657,0.0693,0.0684,0.0764,0.0748,0.0754,0.0769,0.0774,0.0784,0.0794,0.0673,0.0672,0.0672,0,0,0.0438,0.044,0.0421,0.0421,0.0424,0.0427,0.0453,0.0474,0.0512,0.0588,0.0603,0.0668,0.0732,0.0736,0.0744,0.0804,0.0791,0.0814,0.0888,0.0895,0.0904,0.0912,0.0889,0.0895,0.0832,0.0832,0.0832,0,0.0436,0.0421,0.0414,0.0408,0.0426,0.0457,0.0472,0.0494,0.0555,0.06,0.064,0.0746,0.076,0.0808,0.0829,0.0823,0.0821,0.0858,0.0906,0.0914,0.0921,0.0895,0.09,0.0836,0.0836,0.0835,0.0835,0,0.0411,0.0414,0.0415,0.042,0.0438,0.0463,0.0498,0.0555,0.0639,0.0675,0.0783,0.082,0.0891,0.0893,0.0891,0.0946,0.0925,0.0904,0.0888,0.0937,0.0906,0.091,0.0842,0.0841,0.084,0.0839,0,0,0.0372,0.0389,0.0396,0.0415,0.0465,0.0478,0.0544,0.0601,0.0672,0.0767,0.0855,0.092,0.0985,0.0997,0.101,0.1028,0.1064,0.1012,0.101,0.0996,0.1075,0.1061,0.1063,0.1068,0.1069,0.1071,0.1027,0,0.036,0.0358,0.0386,0.0429,0.0444,0.0513,0.0568,0.0638,0.0731,0.0824,0.0892,0.0979,0.1008,0.1069,0.11,0.1077,0.1082,0.1077,0.1023,0.1021,0.101,0.107,0.1076,0.103,0.1031,0.1031,0.1032,0,0.033,0.0344,0.0371,0.0449,0.0468,0.0524,0.0652,0.0715,0.0827,0.0898,0.102,0.1069,0.115,0.1146,0.1186,0.1195,0.1151,0.1119,0.1116,0.1083,0.1017,0.0972,0.1038,0.1037,0.1037,0.1036,0.1036,0,0.0306,0.0344,0.0379,0.0403,0.0484,0.0555,0.0645,0.0764,0.0852,0.0974,0.1044,0.1146,0.1218,0.1218,0.1221,0.1206,0.1223,0.1172,0.1105,0.1101,0.1085,0.1077,0.1158,0.1158,0.1158,0.1158,0.1158,0,0.0289,0.032,0.0385,0.0411,0.05,0.0581,0.0721,0.0802,0.0951,0.104,0.112,0.1192,0.1246,0.1274,0.124,0.1225,0.1248,0.1136,0.1106,0.1116,0.1113,0.1086,0.1079,0.1156,0.1156,0.1157,0.1157,0,0.0259,0.0288,0.033,0.0435,0.0488,0.0575,0.0785,0.0864,0.1008,0.1124,0.1167,0.126,0.1297,0.1316,0.1291,0.1252,0.1211,0.1171,0.1192,0.1159,0.1062,0.1059,0.1086,0.1086,0.1085,0.1085,0.1085,0,0.0245,0.0254,0.0348,0.04,0.0471,0.062,0.0705,0.0883,0.0962,0.1148,0.1164,0.1265,0.1298,0.1271,0.1286,0.1235,0.1199,0.1159,0.1113,0.1096,0.1064,0.1061,0.1059,0.1084,0.1084,0.1084,0.1084,0,0.0224,0.0252,0.0287,0.0383,0.048,0.0568,0.0718,0.0779,0.095,0.1077,0.1156,0.12,0.1228,0.1238,0.123,0.1177,0.1193,0.1154,0.1152,0.1109,0.1094,0.1061,0.1059,0.1083,0.1083,0.1083,0.1083,0,0.0213,0.0226,0.027,0.0351,0.0454,0.0503,0.0588,0.0691,0.0802,0.1007,0.1029,0.112,0.1219,0.1205,0.1193,0.1178,0.1127,0.1055,0.1058,0.1059,0.1077,0.1056,0.1028,0,0,0,0,0,0.0203,0.0199,0.0252,0.0313,0.0404,0.0457,0.0572,0.0643,0.08,0.0832,0.0955,0.0983,0.104,0.1083,0.1053,0.1131,0.1095,0.1088,0.1003,0.1076,0.1077,0.1105,0,0,0,0,0,0,0.019,0.0219,0.0214,0.0258,0.0304,0.0374,0.0436,0.052,0.0558,0.0735,0.0763,0.0918,0.0962,0.1047,0.1033,0.1045,0.0969,0.1168,0.1165,0.1075,0.1076,0.1077,0.1106,0,0,0,0,0]},{"header":{"parameterUnit":"m.s-1","parameterCategory":2,"la1":30.2991,"la2":30.254,"lo1":-89.0895,"lo2":-89.0444,"dy":0.0017,"dx":0.0017,"nx":28,"ny":28,"refTime":"2024-06-11T09:00:00:Z","depth":"4","parameterNumber":3,"parameterNumberName":"V-component_of_CURRENTS"},"data":[0,0,0,0,0,0,0,0,0,0,0,0,0,0,0,0,0,0,0,0,0,0,0,0,0,0,0,0,0,0,0,0,0,0,0,0,0,0,0,0,0,0,0,0,0,0,0,0,0,0,0,0,0,0,0,0,0,0,0.0393,0.0394,0,0.0457,0.0457,0.0458,0.0487,0.0488,0.0488,0.0489,0.0298,0.0293,0.0288,0,0,0,0,0,0,0,0,0,0,0,0,0,0.0187,0.0191,0.0392,0.0394,0.0395,0.0457,0.0457,0.0458,0.0487,0.0488,0.0488,0.0489,0.03,0.0294,0.0287,0,0,0,0,0,0,0,0,0,0,0,0,0,0.0261,0.0192,0.0392,0.0422,0.0425,0.0457,0.0457,0.0458,0.0487,0.0488,0.0488,0.0489,0.0302,0.0294,0.0286,0.022,0,0,0.0261,0.0257,0,0,0,0,0,0,0,0,0.0257,0.0268,0.0416,0.042,0.0424,0.047,0.0316,0.0368,0.0487,0.0457,0.0489,0.0489,0.0335,0.0325,0.033,0.0211,0.0203,0.026,0.0255,0.0252,0.0249,0,0,0,0,0,0,0,0.0252,0.0265,0.0412,0.0418,0.0423,0.0395,0.0407,0.0326,0.0382,0.046,0.0464,0.048,0.0335,0.0338,0.0325,0.02,0.026,0.0253,0.0248,0.0245,-0.0029,-0.0032,0,0,0,0,0,0,0.0262,0.0261,0.041,0.0415,0.0347,0.0399,0.0412,0.045,0.0389,0.0384,0.048,0.0482,0.0352,0.0335,0.0318,0.0225,0.0252,0.0244,0.0239,-0.0027,-0.003,-0.0032,0,0,0,0,0,0,0.0257,0.0275,0.0408,0.0342,0.0358,0.0404,0.0445,0.0451,0.0484,0.0408,0.0397,0.0511,0.0352,0.033,0.0247,0.0218,0.024,0.0233,-0.0024,-0.0028,-0.0031,0.0044,0,0,0,0,0,0,0.0251,0.0274,0.0304,0.0344,0.0362,0.0442,0.0445,0.0452,0.0494,0.0498,0.0429,0.0412,0.0351,0.026,0.0239,0.0207,0.0226,-0.0021,-0.0026,-0.003,0.0045,0.0044,0.0043,0,0,0,0,0,0.0244,0.03,0.0306,0.0324,0.0404,0.0444,0.045,0.0479,0.0496,0.0511,0.0449,0.0416,0.0217,0.0252,0.0228,0.0193,-0.0019,-0.0025,-0.003,0.0045,0.0044,0.0043,0,0,0,0,0,0,0.0236,0.031,0.0317,0.0395,0.0418,0.0452,0.0484,0.0497,0.0469,0.0472,0.0394,0.037,0.0278,0.0221,0.0263,0.0095,0.0089,0.0078,0.0154,0.0152,0.0151,0.019,0.0219,0,0,0,0,0,0.0245,0.0304,0.0348,0.0406,0.0428,0.0455,0.0479,0.0497,0.0484,0.0479,0.0418,0.0332,0.0233,0.0189,0.0096,0.0017,-0.0015,-0.0029,-0.0029,-0.0029,-0.0018,-0.0096,-0.0101,-0.0049,-0.0049,-0.0049,0,0,0.0259,0.0307,0.0341,0.0407,0.0434,0.0454,0.0472,0.0524,0.0522,0.0451,0.0414,0.0328,0.0209,0.0113,0.0066,0.0069,-0.006,-0.0036,-0.0034,-0.0023,-0.0102,-0.0106,-0.011,-0.0053,-0.0052,-0.0052,0,0,0.03,0.0359,0.0407,0.0428,0.0478,0.0486,0.0507,0.0533,0.0533,0.0482,0.0414,0.0328,0.0192,0.0107,0.0042,-0.002,-0.0065,-0.0067,-0.0033,-0.0108,-0.0112,-0.0115,-0.0139,-0.0145,-0.0062,-0.0062,-0.0062,0,0.0307,0.0378,0.0422,0.0457,0.0477,0.0501,0.0528,0.0524,0.0508,0.0486,0.0474,0.0272,0.0188,0.0059,0.0036,-0.0018,-0.0053,-0.0009,-0.0103,-0.0108,-0.0113,-0.0136,-0.0144,-0.0059,-0.0059,-0.0059,-0.006,0,0.0364,0.0414,0.0449,0.049,0.0508,0.0549,0.0546,0.0541,0.053,0.0505,0.04,0.0285,0.0169,0.0114,0.0056,-0.0041,-0.005,-0.0092,-0.0082,-0.0112,-0.0136,-0.0145,-0.0054,-0.0055,-0.0056,-0.0057,0,0,0.0392,0.0473,0.0484,0.0499,0.0535,0.0556,0.0545,0.0535,0.0521,0.0464,0.0416,0.0257,0.0216,0.0138,0.0048,-0.0014,-0.0068,-0.0057,-0.0063,-0.0045,-0.0201,-0.0173,-0.018,-0.0127,-0.0129,-0.0131,-0.0194,0,0.0418,0.0488,0.0516,0.055,0.0578,0.058,0.0562,0.0545,0.051,0.0458,0.0358,0.0265,0.0217,0.0153,0.0085,-0.0053,-0.0095,-0.0045,-0.0206,-0.021,-0.0153,-0.0192,-0.0137,-0.0201,-0.0203,-0.0204,-0.0206,0,0.045,0.0494,0.055,0.0576,0.0589,0.0604,0.0587,0.0575,0.0508,0.047,0.0385,0.0303,0.0186,0.0154,-0.0031,0.0,-0.0082,-0.0164,-0.0169,-0.0174,-0.02,-0.0179,-0.0223,-0.0221,-0.022,-0.0219,-0.0218,0,0.0443,0.0506,0.0555,0.0569,0.0601,0.0617,0.0627,0.0586,0.0568,0.0484,0.0441,0.0307,0.0224,0.0097,-0.0052,-0.0055,-0.0235,-0.0266,-0.0304,-0.0302,-0.0335,-0.0331,-0.0371,-0.0371,-0.0371,-0.0371,-0.0371,0,0.0458,0.0492,0.0565,0.0594,0.0627,0.0641,0.0655,0.0632,0.0591,0.0553,0.0457,0.0381,0.0202,0.0078,-0.0043,-0.0192,-0.0227,-0.0294,-0.0327,-0.0301,-0.0294,-0.034,-0.0335,-0.0373,-0.0373,-0.0372,-0.0372,0,0.0448,0.0503,0.0554,0.0616,0.0636,0.0664,0.0703,0.0694,0.0653,0.0597,0.0567,0.0425,0.0264,0.0108,-0.0106,-0.0181,-0.0329,-0.0365,-0.0287,-0.0315,-0.0338,-0.033,-0.0417,-0.0417,-0.0416,-0.0416,-0.0416,0,0.0458,0.0487,0.0574,0.0614,0.0659,0.0706,0.0728,0.0725,0.0705,0.0614,0.057,0.0428,0.0318,0.0062,-0.01,-0.0299,-0.0329,-0.038,-0.0388,-0.0325,-0.0349,-0.034,-0.0332,-0.0416,-0.0416,-0.0416,-0.0416,0,0.0454,0.0492,0.0538,0.0621,0.0679,0.0722,0.0755,0.0736,0.0703,0.0674,0.0557,0.0424,0.0255,0.0065,-0.0078,-0.0229,-0.0342,-0.0378,-0.038,-0.0389,-0.0325,-0.0347,-0.0339,-0.0415,-0.0415,-0.0415,-0.0415,0,0.0446,0.0471,0.0536,0.0601,0.0679,0.0711,0.0732,0.071,0.0694,0.0598,0.0566,0.0394,0.0303,0.0102,-0.0043,-0.0175,-0.0214,-0.0253,-0.0262,-0.0265,-0.0204,-0.01,-0.0148,0,0,0,0,0,0.0424,0.0441,0.0504,0.0574,0.0656,0.0697,0.0726,0.073,0.0697,0.0622,0.0596,0.0444,0.023,0.0132,0.0003,-0.0051,-0.0243,-0.0205,-0.0293,-0.0411,-0.0412,-0.0365,0,0,0,0,0,0,0.0407,0.0454,0.0481,0.0542,0.0586,0.0657,0.068,0.0662,0.0616,0.0577,0.0464,0.0425,0.0214,0.0302,0.0002,-0.0038,-0.0108,-0.03,-0.0303,-0.0411,-0.0411,-0.0412,-0.0364,0,0,0,0,0]}]]